owner,sensor,date,latitude,longitude,vertical_datum,direction_of_sea_water_velocity,sea_water_speed,upward_sea_water_velocity,qcFlag 
TABS,ioos:station:wmo:42044:1,2003-04-01T00:00:00Z,26.1914,-97.0507,2.0,12.60309702,31.02758934,-99999.0,'11111222,11111222,99999999' 
TABS,ioos:station:wmo:42044:1,2003-04-01T00:30:00Z,26.1914,-97.0507,2.0,14.16109132,28.98065044,-99999.0,'11111222,11111222,99999999' 
TABS,ioos:station:wmo:42044:1,2003-04-01T01:00:00Z,26.1914,-97.0507,2.0,7.380943476,25.84413473,-99999.0,'11111222,11111222,99999999' 
TABS,ioos:station:wmo:42044:1,2003-04-01T01:30:00Z,26.1914,-97.0507,2.0,8.431916066,30.89392335,-99999.0,'11111222,11111222,99999999' 
TABS,ioos:station:wmo:42044:1,2003-04-01T02:00:00Z,26.1914,-97.0507,2.0,10.48131092,30.23446543,-99999.0,'11111222,11111222,99999999' 
TABS,ioos:station:wmo:42044:1,2003-04-01T02:30:00Z,26.1914,-97.0507,2.0,4.10475571,30.17740214,-99999.0,'11111222,11111222,99999999' 
TABS,ioos:station:wmo:42044:1,2003-04-01T03:00:00Z,26.1914,-97.0507,2.0,10.03469507,37.53416044,-99999.0,'11111222,11111222,99999999' 
TABS,ioos:station:wmo:42044:1,2003-04-01T03:30:00Z,26.1914,-97.0507,2.0,12.56513754,34.38348441,-99999.0,'11111222,11111222,99999999' 
TABS,ioos:station:wmo:42044:1,2003-04-01T04:00:00Z,26.1914,-97.0507,2.0,356.9818334,32.28478899,-99999.0,'11111222,11111222,99999999' 
TABS,ioos:station:wmo:42044:1,2003-04-01T04:30:00Z,26.1914,-97.0507,2.0,357.0212201,33.86576442,-99999.0,'11111222,11111222,99999999' 
TABS,ioos:station:wmo:42044:1,2003-04-01T05:00:00Z,26.1914,-97.0507,2.0,8.295915849,41.58512354,-99999.0,'11111222,11111222,99999999' 
TABS,ioos:station:wmo:42044:1,2003-04-01T05:30:00Z,26.1914,-97.0507,2.0,8.382533283,39.51209562,-99999.0,'11111222,11111222,99999999' 
TABS,ioos:station:wmo:42044:1,2003-04-01T06:00:00Z,26.1914,-97.0507,2.0,13.12375824,40.95976196,-99999.0,'11111222,11111222,99999999' 
TABS,ioos:station:wmo:42044:1,2003-04-01T06:30:00Z,26.1914,-97.0507,2.0,8.484589232,40.93802267,-99999.0,'11111222,11111222,99999999' 
TABS,ioos:station:wmo:42044:1,2003-04-01T07:00:00Z,26.1914,-97.0507,2.0,6.465404625,42.0071482,-99999.0,'11111222,11111222,99999999' 
TABS,ioos:station:wmo:42044:1,2003-04-01T07:30:00Z,26.1914,-97.0507,2.0,6.204229492,42.28766369,-99999.0,'11111222,11111222,99999999' 
TABS,ioos:station:wmo:42044:1,2003-04-01T08:00:00Z,26.1914,-97.0507,2.0,6.789828205,41.108296,-99999.0,'11111222,11111222,99999999' 
TABS,ioos:station:wmo:42044:1,2003-04-01T08:30:00Z,26.1914,-97.0507,2.0,3.445330664,45.76270206,-99999.0,'11111222,11111222,99999999' 
TABS,ioos:station:wmo:42044:1,2003-04-01T09:00:00Z,26.1914,-97.0507,2.0,3.646280094,43.55816571,-99999.0,'11111222,11111222,99999999' 
TABS,ioos:station:wmo:42044:1,2003-04-01T09:30:00Z,26.1914,-97.0507,2.0,359.5433599,42.64135551,-99999.0,'11111222,11144222,99999999' 
TABS,ioos:station:wmo:42044:1,2003-04-01T10:00:00Z,26.1914,-97.0507,2.0,3.418559361,43.43728468,-99999.0,'11111222,11111222,99999999' 
TABS,ioos:station:wmo:42044:1,2003-04-01T10:30:00Z,26.1914,-97.0507,2.0,8.031847772,47.73826348,-99999.0,'11111222,11111222,99999999' 
TABS,ioos:station:wmo:42044:1,2003-04-01T11:00:00Z,26.1914,-97.0507,2.0,1.388758857,42.09236035,-99999.0,'11111222,11111222,99999999' 
TABS,ioos:station:wmo:42044:1,2003-04-01T11:30:00Z,26.1914,-97.0507,2.0,4.797088203,44.36539417,-99999.0,'11111222,11111222,99999999' 
TABS,ioos:station:wmo:42044:1,2003-04-01T12:00:00Z,26.1914,-97.0507,2.0,7.688119979,49.11144266,-99999.0,'11111222,11111222,99999999' 
TABS,ioos:station:wmo:42044:1,2003-04-01T12:30:00Z,26.1914,-97.0507,2.0,10.38254912,46.27770522,-99999.0,'11111222,11111222,99999999' 
TABS,ioos:station:wmo:42044:1,2003-04-01T13:00:00Z,26.1914,-97.0507,2.0,5.941319684,45.50441407,-99999.0,'11111222,11111222,99999999' 
TABS,ioos:station:wmo:42044:1,2003-04-01T13:30:00Z,26.1914,-97.0507,2.0,4.484327483,46.81329405,-99999.0,'11111222,11111222,99999999' 
TABS,ioos:station:wmo:42044:1,2003-04-01T14:00:00Z,26.1914,-97.0507,2.0,6.249651477,46.02350052,-99999.0,'11111222,11111222,99999999' 
TABS,ioos:station:wmo:42044:1,2003-04-01T14:30:00Z,26.1914,-97.0507,2.0,5.345430957,47.1249244,-99999.0,'11111222,11111222,99999999' 
TABS,ioos:station:wmo:42044:1,2003-04-01T15:00:00Z,26.1914,-97.0507,2.0,3.463588074,46.51495458,-99999.0,'11111222,11111222,99999999' 
TABS,ioos:station:wmo:42044:1,2003-04-01T16:00:00Z,26.1914,-97.0507,2.0,4.072438146,45.76554381,-99999.0,'11111222,11111222,99999999' 
TABS,ioos:station:wmo:42044:1,2003-04-01T16:30:00Z,26.1914,-97.0507,2.0,1.663931572,45.80931128,-99999.0,'11111222,11111222,99999999' 
TABS,ioos:station:wmo:42044:1,2003-04-01T17:00:00Z,26.1914,-97.0507,2.0,4.0336121,48.48007529,-99999.0,'11111222,11111222,99999999' 
TABS,ioos:station:wmo:42044:1,2003-04-01T17:30:00Z,26.1914,-97.0507,2.0,3.839171287,48.98992549,-99999.0,'11111222,11111222,99999999' 
TABS,ioos:station:wmo:42044:1,2003-04-01T18:00:00Z,26.1914,-97.0507,2.0,5.009702659,49.93072401,-99999.0,'11111222,11111222,99999999' 
TABS,ioos:station:wmo:42044:1,2003-04-01T19:00:00Z,26.1914,-97.0507,2.0,7.003174877,52.41099598,-99999.0,'11111222,11111222,99999999' 
TABS,ioos:station:wmo:42044:1,2003-04-01T19:30:00Z,26.1914,-97.0507,2.0,5.443833158,49.33248929,-99999.0,'11111222,11111222,99999999' 
TABS,ioos:station:wmo:42044:1,2003-04-01T20:00:00Z,26.1914,-97.0507,2.0,5.653844109,51.05836856,-99999.0,'11111222,11111222,99999999' 
TABS,ioos:station:wmo:42044:1,2003-04-01T20:30:00Z,26.1914,-97.0507,2.0,8.291402932,47.77939409,-99999.0,'11111222,11111222,99999999' 
TABS,ioos:station:wmo:42044:1,2003-04-01T21:00:00Z,26.1914,-97.0507,2.0,4.441108371,49.98005402,-99999.0,'11111222,11111222,99999999' 
TABS,ioos:station:wmo:42044:1,2003-04-01T21:30:00Z,26.1914,-97.0507,2.0,6.473190257,46.21461349,-99999.0,'11111222,11111222,99999999' 
TABS,ioos:station:wmo:42044:1,2003-04-01T22:00:00Z,26.1914,-97.0507,2.0,5.913100205,46.49738272,-99999.0,'11111222,11111222,99999999' 
TABS,ioos:station:wmo:42044:1,2003-04-01T22:30:00Z,26.1914,-97.0507,2.0,6.389776515,44.83852919,-99999.0,'11111222,11111222,99999999' 
TABS,ioos:station:wmo:42044:1,2003-04-01T23:00:00Z,26.1914,-97.0507,2.0,5.075480195,43.97240157,-99999.0,'11111222,11111222,99999999' 
TABS,ioos:station:wmo:42044:1,2003-04-01T23:30:00Z,26.1914,-97.0507,2.0,5.947059606,41.98595122,-99999.0,'11111222,11111222,99999999' 
TABS,ioos:station:wmo:42044:1,2003-04-02T00:00:00Z,26.1914,-97.0507,2.0,6.034363841,40.52453084,-99999.0,'11111222,11111222,99999999' 
TABS,ioos:station:wmo:42044:1,2003-04-02T00:30:00Z,26.1914,-97.0507,2.0,3.607153849,37.35399443,-99999.0,'11111222,11111222,99999999' 
TABS,ioos:station:wmo:42044:1,2003-04-02T01:00:00Z,26.1914,-97.0507,2.0,5.862553322,34.56074797,-99999.0,'11111222,11111222,99999999' 
TABS,ioos:station:wmo:42044:1,2003-04-02T01:30:00Z,26.1914,-97.0507,2.0,4.700822521,36.24189978,-99999.0,'11111222,11111222,99999999' 
TABS,ioos:station:wmo:42044:1,2003-04-02T02:00:00Z,26.1914,-97.0507,2.0,1.724579852,35.22595208,-99999.0,'11111222,11111222,99999999' 
TABS,ioos:station:wmo:42044:1,2003-04-02T02:30:00Z,26.1914,-97.0507,2.0,3.607590438,33.37613069,-99999.0,'11111222,11111222,99999999' 
TABS,ioos:station:wmo:42044:1,2003-04-02T03:00:00Z,26.1914,-97.0507,2.0,4.077209195,33.19400096,-99999.0,'11111222,11111222,99999999' 
TABS,ioos:station:wmo:42044:1,2003-04-02T03:30:00Z,26.1914,-97.0507,2.0,11.56724769,34.9600143,-99999.0,'11111222,11111222,99999999' 
TABS,ioos:station:wmo:42044:1,2003-04-02T04:00:00Z,26.1914,-97.0507,2.0,1.694227444,32.47419283,-99999.0,'11111222,11111222,99999999' 
TABS,ioos:station:wmo:42044:1,2003-04-02T04:30:00Z,26.1914,-97.0507,2.0,356.9572342,33.90781031,-99999.0,'11111222,11111222,99999999' 
TABS,ioos:station:wmo:42044:1,2003-04-02T05:00:00Z,26.1914,-97.0507,2.0,0.338391454,32.19056073,-99999.0,'11111222,11111222,99999999' 
TABS,ioos:station:wmo:42044:1,2003-04-02T05:30:00Z,26.1914,-97.0507,2.0,2.373885433,35.01003999,-99999.0,'11111222,11111222,99999999' 
TABS,ioos:station:wmo:42044:1,2003-04-02T06:00:00Z,26.1914,-97.0507,2.0,3.165569416,32.96028671,-99999.0,'11111222,11111222,99999999' 
TABS,ioos:station:wmo:42044:1,2003-04-02T06:30:00Z,26.1914,-97.0507,2.0,359.7076248,33.29043406,-99999.0,'11111222,11144222,99999999' 
TABS,ioos:station:wmo:42044:1,2003-04-02T07:00:00Z,26.1914,-97.0507,2.0,0.528344478,33.63142875,-99999.0,'11111222,11111222,99999999' 
TABS,ioos:station:wmo:42044:1,2003-04-02T07:30:00Z,26.1914,-97.0507,2.0,356.3854126,32.51468899,-99999.0,'11111222,11111222,99999999' 
TABS,ioos:station:wmo:42044:1,2003-04-02T08:00:00Z,26.1914,-97.0507,2.0,1.430097596,32.46010782,-99999.0,'11111222,11111222,99999999' 
TABS,ioos:station:wmo:42044:1,2003-04-02T08:30:00Z,26.1914,-97.0507,2.0,358.6350364,32.73929291,-99999.0,'11111222,11111222,99999999' 
TABS,ioos:station:wmo:42044:1,2003-04-02T09:00:00Z,26.1914,-97.0507,2.0,355.5461751,33.35072113,-99999.0,'11111222,11111222,99999999' 
TABS,ioos:station:wmo:42044:1,2003-04-02T09:30:00Z,26.1914,-97.0507,2.0,1.213997582,31.15699119,-99999.0,'11111222,11111222,99999999' 
TABS,ioos:station:wmo:42044:1,2003-04-02T10:00:00Z,26.1914,-97.0507,2.0,357.6975391,30.36451877,-99999.0,'11111222,11111222,99999999' 
TABS,ioos:station:wmo:42044:1,2003-04-02T10:30:00Z,26.1914,-97.0507,2.0,357.5691185,28.5256744,-99999.0,'11111222,11111222,99999999' 
TABS,ioos:station:wmo:42044:1,2003-04-02T11:00:00Z,26.1914,-97.0507,2.0,354.2639092,28.81428986,-99999.0,'11111222,11111222,99999999' 
TABS,ioos:station:wmo:42044:1,2003-04-02T11:30:00Z,26.1914,-97.0507,2.0,357.7793841,30.19267792,-99999.0,'11111222,11111222,99999999' 
TABS,ioos:station:wmo:42044:1,2003-04-02T12:00:00Z,26.1914,-97.0507,2.0,352.4921621,30.61245661,-99999.0,'11111222,11111222,99999999' 
TABS,ioos:station:wmo:42044:1,2003-04-02T12:30:00Z,26.1914,-97.0507,2.0,351.5121169,30.55468049,-99999.0,'11111222,11111222,99999999' 
TABS,ioos:station:wmo:42044:1,2003-04-02T13:00:00Z,26.1914,-97.0507,2.0,352.9718307,30.1566079,-99999.0,'11111222,11111222,99999999' 
TABS,ioos:station:wmo:42044:1,2003-04-02T13:30:00Z,26.1914,-97.0507,2.0,352.2291772,30.69186537,-99999.0,'11111222,11111222,99999999' 
TABS,ioos:station:wmo:42044:1,2003-04-02T14:00:00Z,26.1914,-97.0507,2.0,355.5149028,31.45633799,-99999.0,'11111222,11111222,99999999' 
TABS,ioos:station:wmo:42044:1,2003-04-02T14:30:00Z,26.1914,-97.0507,2.0,0.485755153,31.86114405,-99999.0,'11111222,11111222,99999999' 
TABS,ioos:station:wmo:42044:1,2003-04-02T15:00:00Z,26.1914,-97.0507,2.0,355.1637701,33.32866934,-99999.0,'11111222,11111222,99999999' 
TABS,ioos:station:wmo:42044:1,2003-04-02T16:00:00Z,26.1914,-97.0507,2.0,355.7812628,33.98208499,-99999.0,'11111222,11111222,99999999' 
TABS,ioos:station:wmo:42044:1,2003-04-02T16:30:00Z,26.1914,-97.0507,2.0,356.3166583,32.99817116,-99999.0,'11111222,11111222,99999999' 
TABS,ioos:station:wmo:42044:1,2003-04-02T17:00:00Z,26.1914,-97.0507,2.0,351.9546273,36.43866628,-99999.0,'11111222,11111222,99999999' 
TABS,ioos:station:wmo:42044:1,2003-04-02T17:30:00Z,26.1914,-97.0507,2.0,352.554477,37.88948403,-99999.0,'11111222,11111222,99999999' 
TABS,ioos:station:wmo:42044:1,2003-04-02T18:00:00Z,26.1914,-97.0507,2.0,348.9487793,39.12556709,-99999.0,'11111222,11111222,99999999' 
TABS,ioos:station:wmo:42044:1,2003-04-02T19:00:00Z,26.1914,-97.0507,2.0,349.3982831,37.77485142,-99999.0,'11111222,11111222,99999999' 
TABS,ioos:station:wmo:42044:1,2003-04-02T19:30:00Z,26.1914,-97.0507,2.0,349.3564031,39.30629085,-99999.0,'11111222,11111222,99999999' 
TABS,ioos:station:wmo:42044:1,2003-04-02T20:00:00Z,26.1914,-97.0507,2.0,350.4795769,38.75379336,-99999.0,'11111222,11111222,99999999' 
TABS,ioos:station:wmo:42044:1,2003-04-02T20:30:00Z,26.1914,-97.0507,2.0,349.803842,40.16432497,-99999.0,'11111222,11111222,99999999' 
TABS,ioos:station:wmo:42044:1,2003-04-02T21:00:00Z,26.1914,-97.0507,2.0,351.9798512,41.35450882,-99999.0,'11111222,11111222,99999999' 
TABS,ioos:station:wmo:42044:1,2003-04-02T21:30:00Z,26.1914,-97.0507,2.0,349.5512128,39.81018588,-99999.0,'11111222,11111222,99999999' 
TABS,ioos:station:wmo:42044:1,2003-04-02T22:00:00Z,26.1914,-97.0507,2.0,350.3753412,37.08198484,-99999.0,'11111222,11111222,99999999' 
TABS,ioos:station:wmo:42044:1,2003-04-02T22:30:00Z,26.1914,-97.0507,2.0,353.907284,37.87394883,-99999.0,'11111222,11111222,99999999' 
TABS,ioos:station:wmo:42044:1,2003-04-02T23:00:00Z,26.1914,-97.0507,2.0,350.4682531,37.86275875,-99999.0,'11111222,11111222,99999999' 
TABS,ioos:station:wmo:42044:1,2003-04-02T23:30:00Z,26.1914,-97.0507,2.0,351.922837,38.43126982,-99999.0,'11111222,11111222,99999999' 
TABS,ioos:station:wmo:42044:1,2003-04-03T00:00:00Z,26.1914,-97.0507,2.0,355.7841192,40.67005901,-99999.0,'11111222,11111222,99999999' 
TABS,ioos:station:wmo:42044:1,2003-04-03T00:30:00Z,26.1914,-97.0507,2.0,352.16458,42.10310796,-99999.0,'11111222,11111222,99999999' 
TABS,ioos:station:wmo:42044:1,2003-04-03T01:00:00Z,26.1914,-97.0507,2.0,353.9763604,44.40519339,-99999.0,'11111222,11111222,99999999' 
TABS,ioos:station:wmo:42044:1,2003-04-03T01:30:00Z,26.1914,-97.0507,2.0,352.0254396,43.82381088,-99999.0,'11111222,11111222,99999999' 
TABS,ioos:station:wmo:42044:1,2003-04-03T02:00:00Z,26.1914,-97.0507,2.0,352.1231948,42.90482956,-99999.0,'11111222,11111222,99999999' 
TABS,ioos:station:wmo:42044:1,2003-04-03T02:30:00Z,26.1914,-97.0507,2.0,351.0952213,41.40913184,-99999.0,'11111222,11111222,99999999' 
TABS,ioos:station:wmo:42044:1,2003-04-03T03:00:00Z,26.1914,-97.0507,2.0,352.7940115,41.13492069,-99999.0,'11111222,11111222,99999999' 
TABS,ioos:station:wmo:42044:1,2003-04-03T03:30:00Z,26.1914,-97.0507,2.0,351.6660438,40.49767648,-99999.0,'11111222,11111222,99999999' 
TABS,ioos:station:wmo:42044:1,2003-04-03T04:00:00Z,26.1914,-97.0507,2.0,349.7424811,40.26354803,-99999.0,'11111222,11111222,99999999' 
TABS,ioos:station:wmo:42044:1,2003-04-03T04:30:00Z,26.1914,-97.0507,2.0,349.2535,42.0983622,-99999.0,'11111222,11111222,99999999' 
TABS,ioos:station:wmo:42044:1,2003-04-03T05:00:00Z,26.1914,-97.0507,2.0,350.4552572,44.44531246,-99999.0,'11111222,11111222,99999999' 
TABS,ioos:station:wmo:42044:1,2003-04-03T05:30:00Z,26.1914,-97.0507,2.0,351.5810916,42.8922289,-99999.0,'11111222,11111222,99999999' 
TABS,ioos:station:wmo:42044:1,2003-04-03T06:00:00Z,26.1914,-97.0507,2.0,352.3907617,43.42239169,-99999.0,'11111222,11111222,99999999' 
TABS,ioos:station:wmo:42044:1,2003-04-03T06:30:00Z,26.1914,-97.0507,2.0,347.8198394,42.9877343,-99999.0,'11111222,11111222,99999999' 
TABS,ioos:station:wmo:42044:1,2003-04-03T07:00:00Z,26.1914,-97.0507,2.0,349.6222314,44.13196801,-99999.0,'11111222,11111222,99999999' 
TABS,ioos:station:wmo:42044:1,2003-04-03T07:30:00Z,26.1914,-97.0507,2.0,350.2099017,44.22405228,-99999.0,'11111222,11111222,99999999' 
TABS,ioos:station:wmo:42044:1,2003-04-03T08:00:00Z,26.1914,-97.0507,2.0,347.3664551,45.58367361,-99999.0,'11111222,11111222,99999999' 
TABS,ioos:station:wmo:42044:1,2003-04-03T08:30:00Z,26.1914,-97.0507,2.0,349.6596086,44.40116327,-99999.0,'11111222,11111222,99999999' 
TABS,ioos:station:wmo:42044:1,2003-04-03T09:00:00Z,26.1914,-97.0507,2.0,345.7113126,45.09508732,-99999.0,'11111222,11111222,99999999' 
TABS,ioos:station:wmo:42044:1,2003-04-03T09:30:00Z,26.1914,-97.0507,2.0,351.5723145,44.3489222,-99999.0,'11111222,11111222,99999999' 
TABS,ioos:station:wmo:42044:1,2003-04-03T10:00:00Z,26.1914,-97.0507,2.0,351.3230453,45.47045304,-99999.0,'11111222,11111222,99999999' 
TABS,ioos:station:wmo:42044:1,2003-04-03T10:30:00Z,26.1914,-97.0507,2.0,352.3069342,44.52073674,-99999.0,'11111222,11111222,99999999' 
TABS,ioos:station:wmo:42044:1,2003-04-03T11:00:00Z,26.1914,-97.0507,2.0,353.179074,46.30777904,-99999.0,'11111222,11111222,99999999' 
TABS,ioos:station:wmo:42044:1,2003-04-03T11:30:00Z,26.1914,-97.0507,2.0,353.3907064,46.04603783,-99999.0,'11111222,11111222,99999999' 
TABS,ioos:station:wmo:42044:1,2003-04-03T12:00:00Z,26.1914,-97.0507,2.0,353.6220773,45.00858696,-99999.0,'11111222,11111222,99999999' 
TABS,ioos:station:wmo:42044:1,2003-04-03T12:30:00Z,26.1914,-97.0507,2.0,354.7216456,45.0008411,-99999.0,'11111222,11111222,99999999' 
TABS,ioos:station:wmo:42044:1,2003-04-03T13:00:00Z,26.1914,-97.0507,2.0,353.175344,44.51543665,-99999.0,'11111222,11111222,99999999' 
TABS,ioos:station:wmo:42044:1,2003-04-03T13:30:00Z,26.1914,-97.0507,2.0,356.3241854,44.45145779,-99999.0,'11111222,11111222,99999999' 
TABS,ioos:station:wmo:42044:1,2003-04-03T14:00:00Z,26.1914,-97.0507,2.0,358.6633782,43.29178329,-99999.0,'11111222,11111222,99999999' 
TABS,ioos:station:wmo:42044:1,2003-04-03T14:30:00Z,26.1914,-97.0507,2.0,357.090054,43.13562912,-99999.0,'11111222,11111222,99999999' 
TABS,ioos:station:wmo:42044:1,2003-04-03T15:00:00Z,26.1914,-97.0507,2.0,2.316153063,41.5739582,-99999.0,'11111222,11111222,99999999' 
TABS,ioos:station:wmo:42044:1,2003-04-03T16:00:00Z,26.1914,-97.0507,2.0,2.061304347,41.70698263,-99999.0,'11111222,11111222,99999999' 
TABS,ioos:station:wmo:42044:1,2003-04-03T16:30:00Z,26.1914,-97.0507,2.0,3.92497339,44.41416103,-99999.0,'11111222,11111222,99999999' 
TABS,ioos:station:wmo:42044:1,2003-04-03T17:00:00Z,26.1914,-97.0507,2.0,4.664928076,43.77499857,-99999.0,'11111222,11111222,99999999' 
TABS,ioos:station:wmo:42044:1,2003-04-03T17:30:00Z,26.1914,-97.0507,2.0,5.247753086,41.98597028,-99999.0,'11111222,11111222,99999999' 
TABS,ioos:station:wmo:42044:1,2003-04-03T18:00:00Z,26.1914,-97.0507,2.0,8.060579643,43.00485205,-99999.0,'11111222,11111222,99999999' 
TABS,ioos:station:wmo:42044:1,2003-04-03T19:00:00Z,26.1914,-97.0507,2.0,4.421768083,42.28585106,-99999.0,'11111222,11111222,99999999' 
TABS,ioos:station:wmo:42044:1,2003-04-03T19:30:00Z,26.1914,-97.0507,2.0,3.559403374,41.72047099,-99999.0,'11111222,11111222,99999999' 
TABS,ioos:station:wmo:42044:1,2003-04-03T20:00:00Z,26.1914,-97.0507,2.0,1.807483144,41.22050461,-99999.0,'11111222,11111222,99999999' 
TABS,ioos:station:wmo:42044:1,2003-04-03T20:30:00Z,26.1914,-97.0507,2.0,0.594131606,43.41233235,-99999.0,'11111222,11111222,99999999' 
TABS,ioos:station:wmo:42044:1,2003-04-03T21:00:00Z,26.1914,-97.0507,2.0,2.346206173,42.99603703,-99999.0,'11111222,11111222,99999999' 
TABS,ioos:station:wmo:42044:1,2003-04-03T21:30:00Z,26.1914,-97.0507,2.0,1.810187273,43.691799,-99999.0,'11111222,11111222,99999999' 
TABS,ioos:station:wmo:42044:1,2003-04-03T22:00:00Z,26.1914,-97.0507,2.0,0.598009113,42.17229541,-99999.0,'11111222,11111222,99999999' 
TABS,ioos:station:wmo:42044:1,2003-04-03T22:30:00Z,26.1914,-97.0507,2.0,3.199327853,42.82674048,-99999.0,'11111222,11111222,99999999' 
TABS,ioos:station:wmo:42044:1,2003-04-03T23:00:00Z,26.1914,-97.0507,2.0,1.548013175,44.0560745,-99999.0,'11111222,11111222,99999999' 
TABS,ioos:station:wmo:42044:1,2003-04-03T23:30:00Z,26.1914,-97.0507,2.0,2.853072856,45.00577852,-99999.0,'11111222,11111222,99999999' 
TABS,ioos:station:wmo:42044:1,2003-04-04T00:00:00Z,26.1914,-97.0507,2.0,5.208780328,40.3164743,-99999.0,'11111222,11111222,99999999' 
TABS,ioos:station:wmo:42044:1,2003-04-04T00:30:00Z,26.1914,-97.0507,2.0,2.922469681,41.58407508,-99999.0,'11111222,11111222,99999999' 
TABS,ioos:station:wmo:42044:1,2003-04-04T01:00:00Z,26.1914,-97.0507,2.0,2.938155831,38.6307753,-99999.0,'11111222,11111222,99999999' 
TABS,ioos:station:wmo:42044:1,2003-04-04T01:30:00Z,26.1914,-97.0507,2.0,0.486379377,38.89140008,-99999.0,'11111222,11111222,99999999' 
TABS,ioos:station:wmo:42044:1,2003-04-04T02:00:00Z,26.1914,-97.0507,2.0,356.45909,37.56171588,-99999.0,'11111222,11111222,99999999' 
TABS,ioos:station:wmo:42044:1,2003-04-04T02:30:00Z,26.1914,-97.0507,2.0,359.5296495,40.18135513,-99999.0,'11111222,11144222,99999999' 
TABS,ioos:station:wmo:42044:1,2003-04-04T03:00:00Z,26.1914,-97.0507,2.0,358.2565471,41.4091741,-99999.0,'11111222,11111222,99999999' 
TABS,ioos:station:wmo:42044:1,2003-04-04T03:30:00Z,26.1914,-97.0507,2.0,356.1049535,42.24759638,-99999.0,'11111222,11111222,99999999' 
TABS,ioos:station:wmo:42044:1,2003-04-04T04:00:00Z,26.1914,-97.0507,2.0,358.4959021,43.42496632,-99999.0,'11111222,11111222,99999999' 
TABS,ioos:station:wmo:42044:1,2003-04-04T04:30:00Z,26.1914,-97.0507,2.0,354.442513,45.1221121,-99999.0,'11111222,11111222,99999999' 
TABS,ioos:station:wmo:42044:1,2003-04-04T05:00:00Z,26.1914,-97.0507,2.0,352.6602187,42.97213632,-99999.0,'11111222,11111222,99999999' 
TABS,ioos:station:wmo:42044:1,2003-04-04T05:30:00Z,26.1914,-97.0507,2.0,351.6979,43.28361584,-99999.0,'11111222,11111222,99999999' 
TABS,ioos:station:wmo:42044:1,2003-04-04T06:00:00Z,26.1914,-97.0507,2.0,352.0368453,43.74181066,-99999.0,'11111222,11111222,99999999' 
TABS,ioos:station:wmo:42044:1,2003-04-04T06:30:00Z,26.1914,-97.0507,2.0,350.9497356,44.37243288,-99999.0,'11111222,11111222,99999999' 
TABS,ioos:station:wmo:42044:1,2003-04-04T07:00:00Z,26.1914,-97.0507,2.0,349.6491792,45.4700099,-99999.0,'11111222,11111222,99999999' 
TABS,ioos:station:wmo:42044:1,2003-04-04T07:30:00Z,26.1914,-97.0507,2.0,349.4066155,45.96340827,-99999.0,'11111222,11111222,99999999' 
TABS,ioos:station:wmo:42044:1,2003-04-04T08:00:00Z,26.1914,-97.0507,2.0,349.4281621,46.60105793,-99999.0,'11111222,11111222,99999999' 
TABS,ioos:station:wmo:42044:1,2003-04-04T08:30:00Z,26.1914,-97.0507,2.0,351.6491397,46.19987229,-99999.0,'11111222,11111222,99999999' 
TABS,ioos:station:wmo:42044:1,2003-04-04T09:00:00Z,26.1914,-97.0507,2.0,352.9888285,46.28613291,-99999.0,'11111222,11111222,99999999' 
TABS,ioos:station:wmo:42044:1,2003-04-04T09:30:00Z,26.1914,-97.0507,2.0,350.8431133,45.36818819,-99999.0,'11111222,11111222,99999999' 
TABS,ioos:station:wmo:42044:1,2003-04-04T10:00:00Z,26.1914,-97.0507,2.0,351.8922461,43.95941765,-99999.0,'11111222,11111222,99999999' 
TABS,ioos:station:wmo:42044:1,2003-04-04T10:30:00Z,26.1914,-97.0507,2.0,355.897321,47.24107111,-99999.0,'11111222,11111222,99999999' 
TABS,ioos:station:wmo:42044:1,2003-04-04T11:00:00Z,26.1914,-97.0507,2.0,356.3787342,46.70326113,-99999.0,'11111222,11111222,99999999' 
TABS,ioos:station:wmo:42044:1,2003-04-04T11:30:00Z,26.1914,-97.0507,2.0,358.4812661,44.51564219,-99999.0,'11111222,11111222,99999999' 
TABS,ioos:station:wmo:42044:1,2003-04-04T12:00:00Z,26.1914,-97.0507,2.0,356.9396663,44.76384814,-99999.0,'11111222,11111222,99999999' 
TABS,ioos:station:wmo:42044:1,2003-04-04T12:30:00Z,26.1914,-97.0507,2.0,0.468074455,45.31151068,-99999.0,'11111222,11111222,99999999' 
TABS,ioos:station:wmo:42044:1,2003-04-04T13:00:00Z,26.1914,-97.0507,2.0,359.6463121,46.95089563,-99999.0,'11111222,11144222,99999999' 
TABS,ioos:station:wmo:42044:1,2003-04-04T13:30:00Z,26.1914,-97.0507,2.0,358.1959175,44.78220294,-99999.0,'11111222,11111222,99999999' 
TABS,ioos:station:wmo:42044:1,2003-04-04T14:00:00Z,26.1914,-97.0507,2.0,3.231640865,43.10854324,-99999.0,'11111222,11111222,99999999' 
TABS,ioos:station:wmo:42044:1,2003-04-04T14:30:00Z,26.1914,-97.0507,2.0,1.740624669,40.49868269,-99999.0,'11111222,11111222,99999999' 
TABS,ioos:station:wmo:42044:1,2003-04-04T15:00:00Z,26.1914,-97.0507,2.0,7.385499925,42.86560626,-99999.0,'11111222,11111222,99999999' 
TABS,ioos:station:wmo:42044:1,2003-04-04T16:00:00Z,26.1914,-97.0507,2.0,10.66428988,38.80011985,-99999.0,'11111222,11111222,99999999' 
TABS,ioos:station:wmo:42044:1,2003-04-04T16:30:00Z,26.1914,-97.0507,2.0,10.40399587,38.3200013,-99999.0,'11111222,11111222,99999999' 
TABS,ioos:station:wmo:42044:1,2003-04-04T17:00:00Z,26.1914,-97.0507,2.0,14.95073661,36.6299686,-99999.0,'11111222,11111222,99999999' 
TABS,ioos:station:wmo:42044:1,2003-04-04T17:30:00Z,26.1914,-97.0507,2.0,14.86787355,33.59472131,-99999.0,'11111222,11111222,99999999' 
TABS,ioos:station:wmo:42044:1,2003-04-04T18:00:00Z,26.1914,-97.0507,2.0,16.89402858,31.86514867,-99999.0,'11111222,11111222,99999999' 
TABS,ioos:station:wmo:42044:1,2003-04-04T19:00:00Z,26.1914,-97.0507,2.0,16.36179402,27.79564354,-99999.0,'11111222,11111222,99999999' 
TABS,ioos:station:wmo:42044:1,2003-04-04T19:30:00Z,26.1914,-97.0507,2.0,21.39088457,25.38891884,-99999.0,'11111222,11111222,99999999' 
TABS,ioos:station:wmo:42044:1,2003-04-04T20:00:00Z,26.1914,-97.0507,2.0,22.15746559,23.91616399,-99999.0,'11111222,11111222,99999999' 